Change the Weather History Date:

Saturday, January 12, 2013

  Actual Average Record
Temperature  
Mean Temperature 68 °F -  
Max Temperature 75 °F 56 °F 60 °F (2015)
Min Temperature 60 °F 36 °F 53 °F (2015)
Cooling Degree Days 2    
Growing Degree Days 18 (Base 50)    
Moisture  
Dew Point 62 °F    
Average Humidity 93    
Maximum Humidity 100    
Minimum Humidity 35    
Precipitation  
Precipitation 0.00 in - - ()
Sea Level Pressure  
Sea Level Pressure 30.18 in    
Wind  
Wind Speed 5 mph (SSW)    
Max Wind Speed 7 mph    
Max Gust Speed -    
Visibility 8 miles    
Events      
Averages and records for this station are not official NWS values.
T = Trace of Precipitation, MM = Missing Value Source: NWS Daily Summary

Daily Weather History Graph

Daily Weather History Graph

Search for Another Location

Airport or City:

Trip Planner

Search our weather history database for the weather conditions in past years. The results will help you decide how hot, cold, wet, or windy it might be!

Date:

Astronomy

Jan. 12, 2013 Rise Set
Actual Time 7:24 AM EST 5:38 PM EST
Civil Twilight 6:57 AM EST 6:04 PM EST
Nautical Twilight 6:27 AM EST 6:35 PM EST
Astronomical Twilight 5:58 AM EST 7:04 PM EST
Moon 7:48 AM EST (1/12) 6:58 PM EST (1/12)
Length of Visible Light 11h 06m
Length of Day
10h 13m
New Moon, 1% of the Moon is Illuminated
Jan 12
New Moon
Jan 18
First Quarter
Jan 26
Full
Feb 3
Last Quarter
Feb 10
New

Hourly Weather History & Observations

Time (EST) Temp. Dew Point Humidity Pressure Visibility Wind Dir Wind Speed Gust Speed Precip Events Conditions
12:15 AM 64.4 °F 64.4 °F 100% 30.21 in 7.0 mi SSW 5.8 mph - 0.00 in   Clear
12:35 AM 64.4 °F 64.4 °F 100% 30.21 in 5.0 mi South 6.9 mph - 0.00 in   Clear
12:55 AM 64.4 °F 64.4 °F 100% 30.20 in 10.0 mi SSW 5.8 mph - 0.00 in   Clear
1:15 AM 64.4 °F 64.4 °F 100% 30.20 in 10.0 mi SSW 6.9 mph - 0.00 in   Clear
1:35 AM 64.4 °F 64.4 °F 100% 30.21 in 10.0 mi SSW 5.8 mph - 0.00 in   Clear
1:55 AM 64.4 °F 64.4 °F 100% 30.21 in 9.0 mi SSW 6.9 mph - 0.00 in   Clear
2:15 AM 64.4 °F 64.4 °F 100% 30.21 in 9.0 mi SSW 5.8 mph - 0.00 in   Clear
2:35 AM 64.4 °F 64.4 °F 100% 30.21 in 8.0 mi SSW 4.6 mph - 0.00 in   Clear
2:55 AM 64.4 °F 64.4 °F 100% 30.21 in 9.0 mi SSW 4.6 mph - 0.00 in   Clear
3:15 AM 62.6 °F 62.6 °F 100% 30.20 in 8.0 mi SSW 4.6 mph - 0.00 in   Clear
3:35 AM 62.6 °F 62.6 °F 100% 30.20 in 6.0 mi SW 4.6 mph - 0.00 in   Clear
3:55 AM 62.6 °F 62.6 °F 100% 30.20 in 5.0 mi SSW 4.6 mph - 0.00 in   Clear
4:15 AM 62.6 °F 62.6 °F 100% 30.19 in 3.0 mi SSW 4.6 mph - 0.00 in   Clear
4:35 AM 62.6 °F 62.6 °F 100% 30.19 in 4.0 mi SSW 3.5 mph - 0.00 in   Clear
4:55 AM 62.6 °F 62.6 °F 100% 30.19 in 2.0 mi SSW 4.6 mph - 0.00 in   Clear
5:15 AM 62.6 °F 62.6 °F 100% 30.19 in 3.0 mi SSW 4.6 mph - 0.00 in   Clear
5:35 AM 62.6 °F 62.6 °F 100% 30.19 in 3.0 mi SSW 4.6 mph - 0.00 in   Clear
6:50 AM 66.2 °F 64.4 °F 94% 30.19 in 2.0 mi SSW 4.6 mph - N/A   Clear
7:50 AM 64.4 °F 62.6 °F 94% 30.21 in 1.0 mi Calm Calm - N/A   Clear
8:50 AM 66.2 °F 62.6 °F 88% 30.22 in 5.0 mi Calm Calm - N/A   Clear
9:50 AM 69.8 °F 41.0 °F 35% 30.23 in 8.0 mi SSW 4.6 mph - N/A   Clear
10:50 AM 71.6 °F 62.6 °F 73% 30.22 in 10.0 mi SSW 3.5 mph - N/A   Clear
11:50 AM 73.4 °F 64.4 °F 73% 30.19 in 10.0 mi Calm Calm - N/A   Clear
12:50 PM 75.2 °F 64.4 °F 69% 30.17 in 10.0 mi Calm Calm - N/A   Clear
1:58 PM 71.6 °F 62.6 °F 73% 30.17 in 10.0 mi SSE 5.8 mph - N/A   Clear
2:50 PM 69.8 °F 60.8 °F 73% 30.16 in 10.0 mi South 4.6 mph - N/A   Clear
3:50 PM 71.6 °F 62.6 °F 73% 30.16 in 10.0 mi Calm Calm - N/A   Clear
4:50 PM 68.0 °F 60.8 °F 78% 30.17 in 10.0 mi South 4.6 mph - N/A   Clear
5:50 PM 62.6 °F 60.8 °F 94% 30.17 in 9.0 mi South 3.5 mph - N/A   Clear
6:54 PM 62.6 °F 60.8 °F 94% 30.16 in 7.0 mi South 3.5 mph - N/A   Clear
8:15 PM 62.6 °F 62.6 °F 100% 30.15 in 9.0 mi South 4.6 mph - 0.00 in   Clear
8:35 PM 62.6 °F 62.6 °F 100% 30.14 in 8.0 mi South 4.6 mph - 0.00 in   Clear
8:50 PM 62.6 °F 60.8 °F 94% 30.15 in 9.0 mi South 4.6 mph - N/A   Clear
8:55 PM 62.6 °F 62.6 °F 100% 30.14 in 7.0 mi South 4.6 mph - 0.00 in   Clear
9:15 PM 62.6 °F 62.6 °F 100% 30.14 in 8.0 mi South 4.6 mph - 0.00 in   Clear
9:35 PM 60.8 °F 60.8 °F 100% 30.14 in 7.0 mi South 5.8 mph - 0.00 in   Clear
9:55 PM 60.8 °F 60.8 °F 100% 30.14 in 8.0 mi South 4.6 mph - 0.00 in   Clear
10:15 PM 60.8 °F 60.8 °F 100% 30.15 in 9.0 mi SSW 3.5 mph - 0.00 in   Clear
10:35 PM 60.8 °F 60.8 °F 100% 30.15 in 8.0 mi South 4.6 mph - 0.00 in   Clear
10:55 PM 60.8 °F 60.8 °F 100% 30.15 in 10.0 mi SSW 3.5 mph - 0.00 in   Clear
11:35 PM 60.8 °F 60.8 °F 100% 30.15 in 10.0 mi South 4.6 mph - 0.00 in   Clear
11:55 PM 60.8 °F 60.8 °F 100% 30.15 in 10.0 mi South 3.5 mph - 0.00 in   Clear